TimeEST,TemperatureF,Dew PointF,Humidity,Sea Level PressureIn,VisibilityMPH,Wind Direction,Wind SpeedMPH,Gust SpeedMPH,PrecipitationIn,Events,Conditions,WindDirDegrees,DateUTC
12:53 AM,55.9,54.0,93,30.07,4.0,NNW,3.5,-,N/A,,Mostly Cloudy,330,2013-11-23 05:53:00
1:53 AM,57.9,55.0,90,30.07,10.0,WNW,5.8,-,N/A,,Overcast,300,2013-11-23 06:53:00
2:53 AM,59.0,53.1,81,30.07,10.0,WNW,6.9,-,N/A,,Overcast,300,2013-11-23 07:53:00
3:53 AM,55.0,53.1,93,30.06,10.0,Calm,Calm,-,N/A,,Scattered Clouds,0,2013-11-23 08:53:00
4:53 AM,57.0,51.1,81,30.05,10.0,NNW,5.8,-,N/A,,Clear,330,2013-11-23 09:53:00
5:53 AM,55.0,50.0,83,30.06,10.0,NNW,4.6,-,N/A,,Clear,340,2013-11-23 10:53:00
6:53 AM,51.1,48.9,92,30.06,10.0,Calm,Calm,-,N/A,,Clear,0,2013-11-23 11:53:00
7:53 AM,55.0,52.0,89,30.09,10.0,Calm,Calm,-,N/A,,Mostly Cloudy,0,2013-11-23 12:53:00
8:53 AM,55.0,48.9,80,30.11,10.0,Calm,Calm,-,N/A,,Overcast,0,2013-11-23 13:53:00
9:53 AM,55.9,44.1,64,30.12,10.0,North,4.6,-,N/A,,Overcast,360,2013-11-23 14:53:00
10:53 AM,57.0,42.1,57,30.10,10.0,NNW,8.1,-,N/A,,Mostly Cloudy,330,2013-11-23 15:53:00
11:53 AM,55.9,37.9,51,30.10,10.0,NNW,11.5,18.4,N/A,,Overcast,330,2013-11-23 16:53:00
12:53 PM,57.0,35.1,44,30.07,10.0,NNW,12.7,-,N/A,,Mostly Cloudy,340,2013-11-23 17:53:00
1:53 PM,55.9,32.0,40,30.05,10.0,NNW,9.2,-,N/A,,Scattered Clouds,340,2013-11-23 18:53:00
2:53 PM,55.9,30.9,39,30.05,10.0,NNW,10.4,-,N/A,,Clear,340,2013-11-23 19:53:00
3:53 PM,53.1,26.1,35,30.07,10.0,NNW,11.5,17.3,N/A,,Clear,330,2013-11-23 20:53:00
4:53 PM,52.0,25.0,35,30.07,10.0,NNW,12.7,-,N/A,,Clear,340,2013-11-23 21:53:00
5:53 PM,50.0,24.1,36,30.10,10.0,North,11.5,20.7,N/A,,Clear,350,2013-11-23 22:53:00
6:53 PM,48.0,25.0,41,30.12,10.0,NNW,4.6,-,N/A,,Clear,340,2013-11-23 23:53:00
7:53 PM,46.9,23.0,39,30.12,10.0,WNW,11.5,-,N/A,,Clear,290,2013-11-24 00:53:00
8:53 PM,44.1,15.1,31,30.14,10.0,West,5.8,-,N/A,,Clear,280,2013-11-24 01:53:00
9:53 PM,42.1,19.9,41,30.15,10.0,North,3.5,-,N/A,,Clear,350,2013-11-24 02:53:00
10:53 PM,39.9,21.9,49,30.16,10.0,North,6.9,-,N/A,,Clear,360,2013-11-24 03:53:00
11:53 PM,39.0,18.0,43,30.18,10.0,North,9.2,-,N/A,,Clear,350,2013-11-24 04:53:00